Time,TemperatureF,DewpointF,PressureIn,WindDirection,WindDirectionDegrees,WindSpeedMPH,WindSpeedGustMPH,Humidity,HourlyPrecipIn,Conditions,Clouds,dailyrainin,SoftwareType,DateUTC
2015-01-31 00:00:00,11.3,7.9,30.46,NNE,29,0.0,0.0,86,0.00,,,0.00,Wunderground v.1.15,2015-01-31 05:00:00,
2015-01-31 00:10:00,10.9,7.8,30.46,NNE,29,0.0,0.0,87,0.00,,,0.00,Wunderground v.1.15,2015-01-31 05:10:00,
2015-01-31 00:20:00,10.5,7.4,30.45,NNE,29,0.0,0.0,87,0.00,,,0.00,Wunderground v.1.15,2015-01-31 05:20:00,
2015-01-31 00:30:00,11.0,8.1,30.45,NNE,29,0.0,0.0,88,0.00,,,0.00,Wunderground v.1.15,2015-01-31 05:30:00,
2015-01-31 00:40:00,10.9,8.0,30.45,NNE,29,0.0,0.0,88,0.00,,,0.00,Wunderground v.1.15,2015-01-31 05:40:00,
2015-01-31 00:50:00,10.9,8.0,30.45,NNE,29,0.0,0.0,88,0.00,,,0.00,Wunderground v.1.15,2015-01-31 05:50:00,
2015-01-31 01:00:00,11.8,8.9,30.44,WNW,288,0.0,2.0,88,0.00,,,0.00,Wunderground v.1.15,2015-01-31 06:00:00,
2015-01-31 01:10:00,13.4,10.3,30.44,WNW,288,0.0,0.0,87,0.00,,,0.00,Wunderground v.1.15,2015-01-31 06:10:00,
2015-01-31 01:20:00,13.4,9.7,30.43,WNW,288,0.0,0.0,85,0.00,,,0.00,Wunderground v.1.15,2015-01-31 06:20:00,
2015-01-31 01:30:00,13.6,9.7,30.43,WNW,288,0.0,0.0,84,0.00,,,0.00,Wunderground v.1.15,2015-01-31 06:30:00,
2015-01-31 01:40:00,13.8,9.9,30.43,WNW,288,0.0,0.0,84,0.00,,,0.00,Wunderground v.1.15,2015-01-31 06:40:00,
2015-01-31 01:50:00,13.4,9.2,30.44,WNW,288,0.0,0.0,83,0.00,,,0.00,Wunderground v.1.15,2015-01-31 06:50:00,
2015-01-31 02:00:00,12.9,11.0,30.44,WNW,288,0.0,1.0,92,0.00,,,0.00,Wunderground v.1.15,2015-01-31 07:00:00,
2015-01-31 02:10:00,13.4,9.5,30.43,WNW,288,0.0,0.0,84,0.00,,,0.00,Wunderground v.1.15,2015-01-31 07:10:00,
2015-01-31 02:20:00,13.3,9.1,30.43,WNW,288,0.0,0.0,83,0.00,,,0.00,Wunderground v.1.15,2015-01-31 07:20:00,
2015-01-31 02:30:00,13.2,9.3,30.43,WNW,288,0.0,1.0,84,0.00,,,0.00,Wunderground v.1.15,2015-01-31 07:30:00,
2015-01-31 02:40:00,14.1,9.9,30.43,West,277,1.0,1.0,83,0.00,,,0.00,Wunderground v.1.15,2015-01-31 07:40:00,
2015-01-31 02:50:00,14.3,9.8,30.43,West,277,0.0,0.0,82,0.00,,,0.00,Wunderground v.1.15,2015-01-31 07:50:00,
2015-01-31 03:00:00,14.1,9.6,30.43,West,277,0.0,0.0,82,0.00,,,0.00,Wunderground v.1.15,2015-01-31 08:00:00,
2015-01-31 03:10:00,14.1,9.6,30.43,West,269,0.0,1.0,82,0.00,,,0.00,Wunderground v.1.15,2015-01-31 08:10:00,
2015-01-31 03:20:00,14.1,9.6,30.42,West,275,0.0,0.0,82,0.00,,,0.00,Wunderground v.1.15,2015-01-31 08:20:00,
2015-01-31 03:30:00,13.9,9.4,30.42,West,275,0.0,0.0,82,0.00,,,0.00,Wunderground v.1.15,2015-01-31 08:30:00,
2015-01-31 03:40:00,13.6,9.4,30.42,West,275,0.0,0.0,83,0.00,,,0.00,Wunderground v.1.15,2015-01-31 08:40:00,
2015-01-31 03:50:00,13.4,9.2,30.42,West,275,0.0,0.0,83,0.00,,,0.00,Wunderground v.1.15,2015-01-31 08:50:00,
2015-01-31 04:00:00,13.4,9.2,30.42,West,274,1.0,1.0,83,0.00,,,0.00,Wunderground v.1.15,2015-01-31 09:00:00,
2015-01-31 04:10:00,13.4,9.5,30.42,West,273,0.0,0.0,84,0.00,,,0.00,Wunderground v.1.15,2015-01-31 09:10:00,
2015-01-31 04:20:00,13.2,9.3,30.42,West,274,0.0,0.0,84,0.00,,,0.00,Wunderground v.1.15,2015-01-31 09:20:00,